Tracking 20719 objects as of 26-May-2020
HD Live streaming from Space Station
objects crossing your sky now

GALAXY 10R

Track GALAXY 10R now!
GALAXY 10R is classified as:


NORAD ID: 26056
Int'l Code: 2000-002A
Perigee: 35,949.8 km
Apogee: 35,995.0 km
Inclination: 8.7 °
Period: 1,445.2 minutes
Semi major axis: 42343 km
RCS: 16.229 m2 (large)
Launch date: January 25, 2000
Source: United States (US)
Launch site: FRENCH GUIANA (FRGUI)

Digital and voice communications; 24 C-band< 24 Ku-band; North America.
aabbcc
Your satellite tracking list
Your tracking list is empty




NASA's NSSDC Master Catalog

Two Line Element Set (TLE):
1 26056U 00002A   20146.88081659  .00000123  00000-0  00000+0 0  9994
2 26056   8.7364  45.4195 0005338  32.5848 169.6421  0.99637865 74267
Source of the keplerian elements: AFSPC